Regional Weather Roundup
Issued by NWS

Home | Current Version | Previous Version | Text Only | Print | Product List | Glossary On
Versions: 1 2 3 4 5 6 7 8 9 10 11 12 13 14 15 16 17 18 19 20 21 22 23 24 25 26 27 28 29 30 31 32 33 34 35 36 37 38 39 40 41 42 43 44 45 46 47 48 49 50
000
ASUS44 KLIX 221110
RWRLA
LOUISIANA WEATHER ROUNDUP
NATIONAL WEATHER SERVICE NEW ORLEANS LA
500 AM CST MON DEC 22 2014

NOTE: "FAIR" INDICATES FEW OR NO CLOUDS BELOW 12,000 FEET WITH NO
      SIGNIFICANT WEATHER AND/OR OBSTRUCTIONS TO VISIBILITY.
      SKY/WX - SKY CONDITION AND SIGNIFICANT WEATHER.
      TMP - AIR TEMPERATURE.    DP   - DEWPOINT TEMPERATURE.
      RH  - RELATIVE HUMIDITY.  PRES - PRESSURE.
      HX  - HEAT INDEX.         WCI  - WIND CHILL INDEX.

*  THESE STATIONS ARE NOT NWS OR FAA STATIONS AND ARE NOT UNDER
   NWS QUALITY CONTROL.

LAZ040-048-061>063-065-066-069-221200-
SOUTHEAST LOUISIANA

CITY           SKY/WX    TMP DP  RH WIND       PRES   REMARKS
N.O. AUDUBON     N/A     59  58  99 MISG        N/A
N.O. INTL ARPT CLOUDY    58  56  93 E5        29.86S FOG
N.O. LAKEFRONT CLOUDY    59  56  89 E3        29.88S FOG
N.O. DOWNTOWN* CLOUDY    57  54  88 CALM      29.88R
SLIDELL        CLOUDY    58  56  93 E3        29.85F FOG
BATON ROUGE    FOG       54  53  97 E3        29.85F VSB 1/4
BOOTHVILLE     CLOUDY    63  63 100 S5        29.86F FOG
BELLE CHASSE   LGT RAIN  60  58  92 NE3       29.86S FOG
BOGALUSA*      FOG       57  54  91 CALM      29.89F VSB 1/2
GALLIANO*      DRIZZLE   55  55  99 MISG      29.85F
NEW ROADS*     FOG       53  53  99 CALM      29.86F VSB 1/4
GONZALES*      CLOUDY    57  57 100 CALM      29.85F FOG
HAMMOND*       NOT AVBL
HOUMA*         CLOUDY    58  57  99 NE3       29.84F FOG
PORT FOURCHON* CLOUDY    61  61 100 CALM      29.88S FOG

$$

LAZ041-044-053-054-221200-
SOUTHWEST LOUISIANA

CITY           SKY/WX    TMP DP  RH WIND       PRES   REMARKS
LAKE CHARLES   FOG       53  53 100 SE7       29.81F VSB 1/4
LAFAYETTE      CLOUDY    52  51  97 NE3       29.85F FOG
PATTERSON      CLOUDY    55  54  94 NE5       29.85F
SALT POINT       N/A     59  55  87 NE3       29.82F
NEW IBERIA     FOG       54  52  93 E5        29.85F VSB 1/2
CHENAULT AIRPK NOT AVBL

$$

LAZ027-028-221200-
CENTRAL LOUISIANA

CITY           SKY/WX    TMP DP  RH WIND       PRES   REMARKS
FORT POLK      FOG       50  50 100 SE9       29.80S VSB 3/4
ALEXANDRIA INT FOG       50  50 100 SE9       29.80F VSB 1/2
ALEXANDRIA     CLOUDY    49  49 100 SE7       29.82F

$$

LAZ001-002-221200-
NORTHWEST LOUISIANA

CITY           SKY/WX    TMP DP  RH WIND       PRES   REMARKS
SHREVEPORT     CLOUDY    50  48  93 S10       29.74F
BARKSDALE AFB  NOT AVBL
DTN SHREVEPORT CLOUDY    50  47  89 S12       29.76F

$$

LAZ014-016-221200-
NORTHEAST LOUISIANA

CITY           SKY/WX    TMP DP  RH WIND       PRES   REMARKS
MONROE         CLOUDY    49  49 100 VRB3      29.83F FOG
TALLULAH       CLOUDY    52  50  93 SE8       29.84F FOG

$$




USA.gov is the U.S. government's official web portal to all federal, state and local government web resources and services.